QPF
0.00 0.00 0.00 0.00 0.00 0.00 0.00 0.00 0.00 0.02 0.07 0.07 0.04 0.06 0.06 0.07 0.08 0.04 0.00 0.01 0.01 0.02 0.00 0.00 0.00 0.00 0.00 0.00 0.00 0.00 0.00 0.00 0.00 0.00 0.00 0.00 0.00 0.00 0.00 0.00 0.00 0.00 0.00
0.00 0.00 0.00 0.00 0.00 0.00 0.00 0.00 0.00 0.02 0.04 0.06 0.08 0.06 0.06 0.07 0.08 0.04 0.04 0.06 0.06 0.07 0.01 0.00 0.00 0.00 0.00 0.00 0.00 0.00 0.00 0.00 0.00 0.00 0.00 0.00 0.00 0.00 0.00 0.01 0.01 0.01 0.01
0.00 0.00 0.00 0.00 0.00 0.00 0.00 0.00 0.01 0.02 0.04 0.05 0.07 0.05 0.06 0.07 0.09 0.05 0.12 0.13 0.09 0.04 0.02 0.00 0.00 0.00 0.00 0.00 0.00 0.00 0.00 0.00 0.00 0.00 0.00 0.00 0.01 0.02 0.02 0.01 0.01 0.00 0.00
0.00 0.00 0.00 0.00 0.00 0.00 0.00 0.00 0.01 0.05 0.07 0.10 0.08 0.05 0.04 0.07 0.10 0.08 0.11 0.16 0.10 0.04 0.01 0.00 0.00 0.00 0.00 0.00 0.00 0.00 0.00 0.00 0.00 0.00 0.00 0.00 0.02 0.02 0.01 0.00 0.00 0.00 0.00
0.00 0.00 0.00 0.00 0.00 0.00 0.00 0.00 0.02 0.07 0.14 0.15 0.08 0.06 0.07 0.08 0.09 0.07 0.07 0.12 0.11 0.02 0.00 0.00 0.00 0.01 0.00 0.00 0.00 0.00 0.00 0.00 0.00 0.00 0.00 0.00 0.00 0.00 0.00 0.00 0.00 0.00 0.00
0.00 0.00 0.00 0.00 0.00 0.00 0.00 0.00 0.02 0.06 0.13 0.13 0.07 0.11 0.08 0.08 0.05 0.04 0.06 0.07 0.05 0.00 0.00 0.00 0.00 0.00 0.00 0.00 0.00 0.00 0.00 0.00 0.00 0.00 0.00 0.00 0.00 0.00 0.00 0.00 0.00 0.00 0.00
0.00 0.00 0.00 0.00 0.00 0.00 0.00 0.00 0.02 0.06 0.13 0.08 0.06 0.13 0.11 0.04 0.02 0.02 0.05 0.10 0.06 0.02 0.00 0.00 0.00 0.00 0.00 0.00 0.00 0.00 0.00 0.00 0.00 0.00 0.00 0.00 0.01 0.01 0.01 0.00 0.00 0.00 0.00
0.00 0.00 0.00 0.00 0.00 0.00 0.00 0.00 0.01 0.07 0.16 0.11 0.07 0.15 0.21 0.07 0.01 0.01 0.05 0.05 0.02 0.00 0.00 0.00 0.00 0.00 0.00 0.00 0.00 0.00 0.00 0.00 0.00 0.00 0.00 0.00 0.01 0.01 0.00 0.00 0.00 0.00 0.00
0.00 0.00 0.00 0.00 0.00 0.00 0.00 0.00 0.01 0.07 0.11 0.08 0.08 0.11 0.18 0.05 0.00 0.00 0.01 0.01 0.00 0.00 0.00 0.00 0.00 0.00 0.00 0.00 0.00 0.00 0.00 0.00 0.00 0.00 0.00 0.00 0.01 0.00 0.00 0.00 0.00 0.00 0.00
0.00 0.00 0.00 0.00 0.00 0.00 0.02 0.01 0.04 0.07 0.06 0.06 0.05 0.05 0.08 0.00 0.00 0.00 0.00 0.00 0.00 0.00 0.00 0.00 0.00 0.00 0.00 0.00 0.00 0.00 0.00 0.00 0.00 0.00 0.00 0.01 0.01 0.00 0.00 0.00 0.00 0.00 0.00
0.00 0.00 0.00 0.00 0.01 0.01 0.06 0.05 0.04 0.07 0.04 0.03 0.03 0.02 0.00 0.00 0.00 0.00 0.00 0.00 0.00 0.00 0.00 0.00 0.00 0.00 0.00 0.00 0.00 0.00 0.00 0.00 0.00 0.00 0.01 0.01 0.00 0.00 0.00 0.00 0.00 0.00 0.00
0.00 0.00 0.00 0.01 0.01 0.02 0.02 0.07 0.08 0.05 0.03 0.01 0.02 0.01 0.00 0.00 0.00 0.00 0.00 0.00 0.00 0.00 0.00 0.00 0.00 0.00 0.00 0.00 0.00 0.00 0.00 0.00 0.01 0.01 0.00 0.00 0.00 0.00 0.00 0.00 0.00 0.00 0.00
0.00 0.00 0.00 0.00 0.01 0.01 0.03 0.07 0.06 0.09 0.07 0.02 0.01 0.00 0.00 0.00 0.00 0.00 0.00 0.00 0.00 0.00 0.00 0.00 0.00 0.00 0.00 0.00 0.00 0.00 0.00 0.00 0.00 0.00 0.00 0.00 0.00 0.00 0.00 0.00 0.00 0.00 0.00
0.00 0.00 0.00 0.00 0.00 0.01 0.02 0.04 0.02 0.06 0.07 0.02 0.02 0.00 0.00 0.00 0.00 0.00 0.00 0.00 0.00 0.00 0.00 0.01 0.00 0.01 0.00 0.00 0.00 0.00 0.00 0.00 0.00 0.00 0.00 0.00 0.00 0.00 0.00 0.00 0.00 0.00 0.00
0.00 0.00 0.00 0.00 0.01 0.01 0.01 0.02 0.04 0.03 0.04 0.04 0.03 0.00 0.00 0.00 0.00 0.00 0.00 0.00 0.00 0.00 0.00 0.00 0.00 0.00 0.00 0.00 0.00 0.00 0.00 0.00 0.00 0.00 0.00 0.00 0.00 0.00 0.00 0.00 0.00 0.00 0.00
0.00 0.00 0.00 0.00 0.00 0.01 0.01 0.00 0.02 0.01 0.03 0.06 0.06 0.00 0.00 0.00 0.00 0.00 0.00 0.00 0.00 0.00 0.00 0.00 0.00 0.00 0.00 0.00 0.00 0.00 0.00 0.00 0.00 0.00 0.00 0.00 0.00 0.00 0.00 0.00 0.00 0.00 0.00
0.00 0.00 0.00 0.00 0.00 0.00 0.00 0.00 0.00 0.00 0.02 0.06 0.05 0.00 0.00 0.00 0.00 0.00 0.00 0.00 0.00 0.00 0.00 0.00 0.00 0.00 0.00 0.00 0.00 0.00 0.00 0.00 0.00 0.00 0.00 0.00 0.00 0.00 0.00 0.00 0.00 0.00 0.00
0.00 0.00 0.00 0.00 0.00 0.00 0.00 0.00 0.00 0.00 0.01 0.04 0.03 0.01 0.00 0.00 0.00 0.00 0.00 0.00 0.00 0.00 0.00 0.00 0.00 0.00 0.00 0.00 0.00 0.00 0.00 0.00 0.00 0.00 0.00 0.00 0.00 0.00 0.00 0.00 0.00 0.00 0.00
0.00 0.00 0.00 0.00 0.00 0.00 0.00 0.00 0.00 0.00 0.00 0.01 0.02 0.01 0.00 0.00 0.00 0.00 0.00 0.00 0.00 0.00 0.00 0.00 0.00 0.00 0.00 0.00 0.00 0.00 0.00 0.00 0.00 0.00 0.00 0.00 0.00 0.00 0.00 0.00 0.00 0.00 0.00
0.00 0.00 0.00 0.00 0.00 0.00 0.00 0.00 0.00 0.00 0.01 0.01 0.00 0.00 0.00 0.00 0.00 0.00 0.00 0.00 0.00 0.00 0.00 0.00 0.00 0.00 0.00 0.00 0.00 0.00 0.00 0.00 0.00 0.00 0.00 0.00 0.00 0.00 0.00 0.00 0.00 0.00 0.00
0.00 0.00 0.00 0.01 0.01 0.00 0.00 0.00 0.00 0.00 0.00 0.00 0.00 0.00 0.00 0.00 0.00 0.00 0.00 0.00 0.00 0.00 0.00 0.00 0.00 0.00 0.00 0.00 0.00 0.00 0.00 0.00 0.00 0.00 0.00 0.00 0.00 0.00 0.00 0.00 0.00 0.00 0.00
0.00 0.00 0.00 0.01 0.02 0.00 0.00 0.00 0.00 0.00 0.00 0.00 0.00 0.00 0.00 0.00 0.00 0.00 0.00 0.00 0.00 0.00 0.00 0.00 0.00 0.00 0.00 0.00 0.00 0.00 0.00 0.00 0.00 0.00 0.00 0.00 0.00 0.00 0.00 0.00 0.00 0.00 0.00
0.00 0.00 0.00 0.00 0.02 0.00 0.00 0.00 0.00 0.00 0.00 0.00 0.00 0.00 0.00 0.00 0.00 0.00 0.00 0.00 0.00 0.00 0.00 0.00 0.00 0.00 0.00 0.00 0.00 0.00 0.00 0.00 0.00 0.00 0.00 0.00 0.00 0.00 0.00 0.00 0.00 0.00 0.00
0.00 0.00 0.00 0.00 0.01 0.01 0.00 0.00 0.00 0.00 0.00 0.00 0.00 0.00 0.00 0.00 0.00 0.00 0.00 0.00 0.00 0.00 0.00 0.00 0.00 0.00 0.00 0.00 0.00 0.00 0.00 0.00 0.00 0.00 0.00 0.00 0.00 0.00 0.00 0.00 0.00 0.00 0.00
0.00 0.00 0.00 0.00 0.02 0.00 0.00 0.00 0.00 0.00 0.00 0.00 0.00 0.00 0.00 0.00 0.00 0.00 0.00 0.00 0.00 0.00 0.00 0.00 0.00 0.00 0.00 0.00 0.00 0.00 0.00 0.00 0.00 0.00 0.00 0.00 0.00 0.00 0.00 0.00 0.00 0.00 0.00
0.00 0.00 0.00 0.00 0.01 0.00 0.00 0.00 0.00 0.00 0.00 0.00 0.00 0.00 0.00 0.00 0.00 0.00 0.00 0.00 0.00 0.00 0.00 0.00 0.00 0.00 0.00 0.00 0.00 0.00 0.00 0.00 0.00 0.00 0.00 0.00 0.00 0.00 0.00 0.00 0.00 0.00 0.00
MSLP
1006.28 1007.12 1008.89 1009.35 1009.56 1009.78 1009.96 1010.39 1010.95 1011.28 1011.56 1011.80 1012.10 1012.58 1012.86 1013.06 1013.59 1013.82 1014.18 1014.54 1014.82 1015.12 1015.36 1015.51 1015.91 1016.54 1016.84 1017.22 1017.49 1017.67 1017.75 1017.98 1018.25 1018.53 1018.71 1018.88 1019.16 1019.29 1019.31 1019.19 1018.91 1019.12 1019.69
1006.31 1007.26 1008.83 1009.24 1009.54 1009.69 1009.98 1010.41 1010.95 1011.43 1011.60 1011.95 1012.33 1012.77 1013.01 1013.25 1013.73 1014.08 1014.38 1014.78 1015.18 1015.37 1015.70 1015.84 1016.37 1016.82 1017.36 1017.77 1017.96 1018.17 1018.34 1018.43 1018.73 1018.91 1019.12 1019.32 1019.64 1019.71 1019.69 1019.57 1019.52 1020.01 1020.13
1006.85 1007.53 1008.66 1009.26 1009.49 1009.71 1010.01 1010.44 1010.94 1011.43 1011.66 1012.05 1012.61 1012.88 1013.15 1013.54 1013.97 1014.37 1014.67 1015.08 1015.13 1015.62 1015.94 1016.28 1016.80 1017.39 1017.90 1018.10 1018.39 1018.74 1018.86 1018.80 1018.93 1018.92 1018.60 1018.52 1019.49 1020.16 1020.23 1020.36 1020.44 1020.52 1020.65
1007.12 1007.80 1008.42 1009.33 1009.53 1009.85 1010.03 1010.32 1010.99 1011.41 1011.79 1012.28 1012.76 1013.03 1013.34 1013.88 1014.42 1014.84 1015.06 1015.49 1015.64 1015.88 1016.14 1016.81 1017.37 1017.95 1018.26 1018.61 1018.87 1019.33 1019.22 1019.23 1019.15 1018.91 1018.34 1019.25 1019.95 1020.63 1020.75 1020.83 1020.88 1021.02 1021.15
1007.28 1007.80 1008.48 1009.52 1009.74 1009.96 1010.05 1010.40 1011.00 1011.39 1011.86 1012.39 1012.84 1013.16 1013.75 1014.20 1014.80 1015.39 1015.86 1015.96 1016.05 1016.23 1016.64 1017.36 1017.95 1018.52 1018.80 1019.11 1019.39 1019.61 1019.50 1019.60 1019.39 1018.98 1019.65 1020.16 1020.53 1021.15 1021.24 1021.32 1021.48 1021.63 1021.78
1007.42 1007.88 1009.23 1009.81 1010.00 1010.13 1010.18 1010.56 1011.07 1011.37 1012.02 1012.59 1013.07 1013.45 1014.06 1014.56 1014.96 1015.55 1015.97 1016.27 1016.37 1016.58 1017.24 1017.85 1018.47 1019.01 1019.20 1019.43 1019.75 1019.96 1019.74 1019.40 1018.86 1019.21 1020.40 1021.02 1021.05 1021.64 1021.77 1021.94 1022.13 1022.34 1022.50
1007.71 1008.09 1009.22 1010.01 1010.28 1010.29 1010.35 1010.73 1011.10 1011.38 1012.22 1012.80 1013.26 1013.84 1014.26 1014.64 1015.04 1015.60 1016.24 1016.63 1016.85 1016.95 1017.66 1018.28 1018.79 1019.30 1019.50 1019.82 1020.15 1020.10 1019.80 1019.59 1019.40 1020.29 1020.77 1021.17 1021.76 1022.07 1022.29 1022.49 1022.75 1022.91 1023.01
1008.07 1008.38 1009.07 1010.18 1010.41 1010.43 1010.59 1011.01 1011.21 1011.54 1012.24 1013.09 1013.59 1013.98 1014.34 1014.75 1015.38 1015.77 1016.39 1016.88 1017.08 1017.44 1018.08 1018.71 1019.16 1019.56 1019.81 1020.20 1020.48 1020.26 1019.90 1019.44 1019.25 1020.54 1020.86 1021.50 1022.38 1022.55 1022.82 1023.13 1023.30 1023.43 1023.51
1008.25 1008.56 1009.19 1009.70 1010.35 1010.70 1010.88 1011.33 1011.57 1011.97 1012.49 1013.13 1013.72 1014.13 1014.53 1015.02 1015.60 1016.01 1016.47 1016.85 1017.36 1017.78 1018.46 1019.02 1019.39 1019.74 1020.13 1020.55 1020.71 1020.54 1020.26 1019.83 1019.49 1020.81 1021.43 1022.07 1022.84 1023.03 1023.41 1023.60 1023.81 1023.90 1023.98
1008.90 1009.15 1009.39 1009.80 1010.07 1010.27 1010.85 1011.63 1011.95 1012.54 1012.97 1013.37 1013.85 1014.41 1014.75 1015.32 1015.73 1016.25 1016.74 1017.12 1017.65 1018.16 1018.74 1019.25 1019.71 1020.10 1020.49 1020.81 1020.98 1020.91 1020.50 1020.27 1020.29 1021.22 1021.79 1022.71 1023.25 1023.56 1023.86 1023.98 1024.21 1024.32 1024.45
1009.23 1009.47 1009.80 1010.02 1010.07 1010.11 1010.84 1011.62 1012.19 1012.88 1013.50 1013.89 1014.35 1014.68 1015.18 1015.29 1015.75 1016.34 1016.63 1017.54 1017.88 1018.43 1018.98 1019.57 1019.96 1020.39 1020.77 1021.14 1021.25 1020.92 1020.66 1020.66 1021.16 1021.31 1022.34 1023.40 1023.64 1024.02 1024.21 1024.43 1024.62 1024.77 1024.83
1009.05 1009.39 1009.94 1009.95 1010.12 1010.28 1010.60 1011.44 1011.88 1012.85 1013.45 1014.03 1014.25 1014.52 1014.37 1015.14 1015.57 1015.78 1017.21 1017.82 1018.25 1018.73 1019.25 1019.80 1020.22 1020.52 1020.51 1020.65 1021.07 1021.14 1020.87 1021.24 1021.51 1022.10 1023.17 1023.62 1024.03 1024.34 1024.57 1024.80 1025.01 1025.15 1025.28
1008.53 1008.87 1009.86 1010.18 1010.15 1010.39 1010.74 1011.50 1011.88 1012.77 1013.56 1014.21 1014.57 1014.52 1014.87 1015.46 1016.09 1016.40 1017.30 1018.10 1018.40 1018.98 1019.16 1019.85 1020.35 1019.68 1019.21 1019.67 1020.19 1020.95 1021.61 1021.55 1022.29 1022.95 1023.86 1024.05 1024.25 1024.62 1024.78 1025.05 1025.26 1025.50 1025.65
1007.74 1008.59 1009.62 1010.05 1010.39 1010.31 1010.75 1011.44 1011.82 1012.61 1013.35 1014.19 1013.82 1014.88 1014.91 1015.22 1016.33 1016.69 1016.61 1017.24 1017.98 1018.24 1018.50 1018.77 1019.16 1018.74 1019.27 1019.65 1020.79 1021.68 1021.82 1022.14 1022.75 1023.51 1024.36 1024.50 1024.61 1024.73 1025.04 1025.32 1025.56 1025.73 1025.91
1007.39 1008.22 1009.17 1009.57 1010.35 1010.52 1010.75 1011.27 1011.87 1012.19 1012.79 1013.77 1014.50 1015.08 1015.03 1015.00 1015.74 1016.48 1016.92 1017.31 1017.59 1018.03 1017.91 1018.32 1019.18 1019.38 1019.92 1020.85 1021.50 1022.01 1022.05 1022.61 1022.98 1023.59 1024.29 1024.87 1024.97 1025.01 1025.23 1025.48 1025.80 1025.99 1026.21
1007.16 1008.00 1008.94 1009.28 1010.02 1010.24 1010.83 1011.35 1011.86 1012.48 1012.39 1013.37 1014.19 1014.45 1015.17 1015.12 1015.41 1015.60 1016.22 1016.74 1017.36 1017.28 1017.60 1018.10 1018.58 1019.78 1020.74 1021.35 1021.86 1022.12 1022.50 1022.78 1023.29 1023.94 1024.40 1025.02 1025.38 1025.36 1025.50 1025.75 1025.99 1026.19 1026.45
1006.35 1007.27 1008.42 1009.11 1009.87 1010.24 1010.61 1011.46 1012.05 1012.41 1012.81 1013.17 1013.84 1014.38 1014.96 1015.52 1015.83 1015.75 1015.89 1016.24 1016.68 1017.14 1017.69 1018.16 1019.73 1020.67 1021.18 1021.57 1022.28 1022.72 1022.86 1023.24 1023.71 1024.30 1024.29 1024.54 1025.42 1025.86 1025.94 1026.16 1026.34 1026.49 1026.75
1005.68 1006.39 1007.90 1008.82 1009.42 1009.94 1010.21 1011.03 1011.89 1012.63 1012.96 1013.02 1013.59 1014.13 1014.74 1015.34 1015.69 1015.78 1016.01 1016.31 1016.76 1017.46 1017.80 1018.36 1020.03 1020.82 1021.41 1022.06 1022.69 1022.99 1023.02 1023.85 1024.46 1024.61 1024.50 1024.25 1024.38 1025.37 1026.44 1026.65 1026.73 1026.82 1026.96
1004.82 1005.58 1007.04 1008.39 1008.94 1009.52 1010.25 1010.55 1011.37 1012.49 1012.98 1013.16 1013.50 1013.93 1014.58 1014.98 1015.40 1015.53 1015.81 1016.23 1017.10 1017.34 1017.88 1018.47 1019.59 1020.57 1021.42 1022.26 1022.82 1023.33 1023.84 1024.41 1024.82 1024.84 1024.79 1024.81 1024.76 1024.75 1025.37 1026.93 1027.07 1027.19 1027.30
1004.17 1005.08 1006.24 1007.86 1008.43 1009.21 1010.08 1010.83 1011.48 1012.10 1012.68 1013.05 1012.72 1013.24 1014.25 1014.71 1015.18 1015.37 1015.67 1016.34 1016.77 1017.19 1017.80 1018.34 1019.56 1020.44 1021.18 1022.08 1023.04 1024.04 1024.61 1025.00 1025.09 1024.93 1025.16 1024.96 1024.83 1025.16 1025.28 1025.99 1026.72 1027.12 1027.56
1003.25 1004.50 1005.36 1006.80 1007.72 1008.71 1009.49 1010.32 1010.97 1010.78 1011.39 1012.77 1012.82 1013.31 1013.98 1014.25 1015.01 1015.32 1015.54 1016.29 1016.51 1016.94 1017.60 1018.69 1019.83 1020.62 1021.37 1022.26 1023.17 1024.55 1025.21 1025.47 1025.52 1025.43 1025.35 1025.06 1024.89 1025.24 1025.58 1025.79 1025.66 1026.16 1027.26
1002.16 1003.42 1004.58 1005.70 1007.30 1008.01 1008.76 1009.56 1010.19 1010.14 1010.79 1011.39 1012.88 1013.09 1013.62 1013.93 1014.62 1015.02 1015.37 1015.84 1016.25 1016.72 1017.58 1018.61 1019.70 1020.40 1021.49 1021.90 1021.70 1023.15 1024.48 1025.44 1025.53 1025.62 1025.26 1024.54 1024.80 1024.98 1025.36 1025.76 1025.80 1026.06 1026.19
1001.54 1002.52 1003.59 1004.64 1006.33 1007.47 1007.98 1008.81 1009.23 1009.77 1010.56 1010.96 1011.62 1012.78 1013.13 1013.52 1014.05 1014.52 1015.12 1015.46 1016.04 1016.45 1017.52 1018.43 1019.12 1019.42 1020.21 1021.30 1020.92 1020.41 1022.14 1022.02 1023.65 1024.61 1024.56 1024.32 1024.66 1024.67 1024.84 1025.42 1025.83 1026.11 1026.34
1000.85 1002.12 1003.09 1003.92 1005.00 1006.41 1007.11 1007.18 1007.80 1008.19 1008.82 1009.48 1010.31 1011.36 1012.47 1013.16 1013.59 1014.09 1014.74 1015.21 1015.73 1016.13 1016.99 1017.84 1018.43 1018.69 1019.12 1019.94 1020.41 1020.28 1020.64 1020.31 1021.39 1022.57 1023.48 1024.00 1024.33 1024.49 1024.80 1024.88 1025.41 1025.85 1026.12
1000.57 1001.28 1002.46 1003.49 1004.12 1005.01 1005.84 1006.21 1006.93 1007.66 1008.14 1008.87 1009.65 1010.61 1011.55 1012.63 1013.05 1013.48 1014.15 1014.75 1015.34 1015.76 1016.42 1017.12 1017.70 1018.24 1018.59 1018.89 1019.27 1019.74 1020.36 1020.62 1020.96 1020.87 1021.85 1022.94 1023.71 1023.79 1023.99 1024.73 1024.80 1025.23 1025.72
999.61 1000.79 1001.72 1002.53 1003.15 1004.01 1004.97 1005.58 1006.06 1006.87 1007.20 1007.92 1008.64 1009.71 1010.69 1011.54 1012.40 1012.86 1013.44 1014.13 1014.71 1015.26 1015.81 1016.53 1017.12 1017.70 1017.79 1018.16 1018.54 1019.01 1019.27 1019.57 1019.98 1020.93 1021.59 1022.16 1022.24 1022.69 1023.27 1023.80 1024.45 1024.60 1024.88
Thickness
5769 5766 5751 5745 5743 5739 5735 5730 5726 5724 5721 5720 5719 5715 5714 5715 5712 5712 5711 5711 5711 5711 5710 5712 5712 5709 5710 5710 5709 5710 5711 5712 5712 5711 5711 5710 5709 5707 5707 5708 5710 5708 5704
5770 5762 5749 5745 5742 5739 5734 5729 5725 5721 5720 5717 5716 5714 5713 5713 5709 5709 5708 5708 5707 5703 5708 5710 5707 5706 5704 5704 5706 5707 5707 5708 5707 5707 5707 5706 5704 5704 5705 5706 5706 5702 5701
5762 5756 5748 5744 5741 5738 5733 5728 5725 5720 5718 5715 5713 5712 5712 5710 5706 5705 5705 5705 5708 5706 5705 5704 5702 5700 5699 5700 5702 5702 5703 5706 5706 5707 5711 5711 5704 5700 5700 5700 5699 5699 5696
5758 5752 5748 5741 5739 5737 5732 5729 5724 5720 5716 5712 5711 5710 5710 5707 5703 5701 5700 5701 5703 5703 5703 5700 5698 5696 5696 5696 5698 5696 5699 5702 5704 5707 5711 5705 5701 5696 5696 5696 5696 5694 5692
5755 5750 5746 5738 5736 5734 5730 5727 5723 5720 5715 5711 5710 5710 5707 5705 5702 5698 5697 5699 5699 5700 5699 5695 5693 5691 5693 5694 5695 5694 5695 5698 5701 5705 5701 5698 5696 5692 5693 5692 5690 5689 5687
5754 5748 5738 5734 5732 5731 5729 5725 5721 5720 5713 5710 5707 5708 5705 5702 5700 5697 5696 5696 5697 5696 5693 5691 5689 5688 5691 5692 5690 5691 5695 5699 5705 5702 5695 5692 5692 5689 5688 5687 5685 5682 5680
5749 5746 5736 5730 5727 5727 5727 5723 5722 5719 5713 5708 5706 5705 5704 5702 5701 5697 5695 5693 5693 5693 5689 5686 5687 5687 5689 5689 5688 5691 5695 5698 5699 5694 5692 5690 5687 5685 5683 5682 5679 5677 5676
5743 5741 5735 5726 5724 5723 5724 5720 5720 5718 5713 5706 5703 5702 5702 5701 5699 5699 5695 5692 5692 5691 5688 5684 5685 5686 5687 5686 5686 5690 5694 5698 5699 5692 5691 5687 5682 5681 5679 5676 5674 5673 5672
5740 5737 5731 5726 5723 5720 5720 5717 5716 5713 5710 5706 5703 5701 5700 5699 5697 5696 5694 5692 5690 5689 5685 5683 5684 5685 5685 5684 5685 5688 5692 5695 5697 5690 5686 5683 5678 5677 5674 5672 5670 5669 5668
5730 5728 5727 5724 5722 5720 5717 5713 5712 5708 5705 5704 5702 5699 5698 5697 5696 5695 5693 5691 5688 5686 5683 5682 5682 5682 5682 5682 5683 5685 5689 5692 5692 5687 5683 5677 5674 5672 5669 5668 5667 5665 5663
5722 5721 5720 5719 5720 5719 5716 5712 5709 5704 5700 5699 5697 5697 5694 5695 5694 5692 5691 5687 5686 5685 5683 5681 5680 5680 5680 5680 5681 5684 5688 5688 5686 5685 5678 5672 5671 5668 5666 5665 5663 5661 5660
5715 5717 5714 5717 5717 5716 5715 5711 5709 5703 5699 5697 5698 5696 5697 5694 5693 5694 5686 5684 5684 5683 5681 5679 5678 5680 5681 5681 5680 5683 5685 5684 5683 5679 5672 5671 5667 5665 5663 5661 5659 5657 5655
5718 5717 5712 5711 5712 5713 5712 5707 5706 5702 5698 5694 5692 5694 5693 5689 5687 5687 5684 5681 5681 5680 5680 5678 5677 5683 5689 5688 5685 5683 5680 5681 5677 5673 5668 5667 5665 5662 5661 5657 5655 5653 5651
5721 5717 5710 5709 5708 5711 5708 5704 5703 5700 5697 5691 5684 5688 5690 5688 5683 5684 5687 5686 5683 5683 5685 5685 5684 5690 5688 5687 5682 5678 5678 5677 5673 5669 5663 5662 5660 5660 5657 5654 5652 5650 5648
5720 5716 5710 5709 5704 5705 5706 5702 5700 5701 5698 5692 5686 5681 5683 5686 5685 5683 5683 5684 5685 5685 5688 5687 5685 5685 5684 5679 5677 5676 5676 5673 5671 5667 5661 5658 5657 5656 5654 5651 5649 5646 5644
5716 5712 5708 5707 5704 5705 5701 5698 5697 5695 5699 5693 5688 5685 5681 5683 5683 5686 5686 5686 5685 5689 5689 5689 5688 5682 5677 5675 5674 5674 5672 5670 5667 5663 5659 5655 5653 5652 5651 5648 5646 5643 5640
5717 5713 5708 5704 5700 5700 5699 5694 5691 5692 5692 5692 5689 5686 5683 5680 5680 5684 5686 5688 5688 5688 5687 5687 5679 5674 5673 5672 5669 5668 5668 5665 5662 5659 5659 5657 5651 5649 5647 5644 5642 5640 5637
5716 5716 5707 5703 5699 5698 5698 5694 5689 5686 5688 5690 5688 5685 5683 5679 5677 5681 5683 5685 5685 5683 5684 5683 5674 5672 5670 5668 5665 5664 5664 5659 5656 5655 5656 5658 5657 5649 5642 5640 5638 5635 5632
5717 5715 5707 5701 5699 5696 5693 5693 5689 5682 5682 5685 5685 5683 5680 5679 5677 5681 5683 5684 5680 5682 5681 5681 5676 5673 5669 5664 5663 5660 5657 5654 5652 5652 5653 5653 5653 5651 5646 5636 5633 5630 5627
5714 5713 5706 5699 5698 5693 5688 5684 5682 5681 5679 5680 5687 5682 5678 5677 5678 5680 5681 5680 5681 5681 5680 5680 5674 5672 5669 5664 5658 5651 5649 5648 5648 5649 5648 5649 5650 5647 5645 5639 5632 5628 5623
5713 5708 5706 5701 5699 5694 5688 5683 5680 5686 5686 5679 5682 5680 5676 5678 5677 5678 5680 5678 5680 5680 5679 5674 5669 5666 5663 5659 5653 5644 5641 5642 5643 5643 5644 5646 5647 5644 5640 5637 5635 5630 5621
5713 5711 5707 5704 5693 5693 5690 5686 5684 5687 5685 5685 5676 5678 5676 5677 5676 5679 5680 5679 5679 5680 5677 5673 5667 5664 5658 5659 5662 5652 5641 5638 5638 5639 5642 5646 5644 5642 5638 5634 5631 5627 5623
5707 5709 5708 5705 5695 5690 5691 5685 5685 5683 5679 5677 5679 5675 5677 5678 5677 5679 5679 5679 5678 5679 5673 5670 5668 5668 5663 5658 5666 5671 5653 5662 5650 5644 5644 5645 5642 5640 5638 5632 5627 5623 5618
5704 5704 5703 5701 5698 5691 5690 5692 5690 5690 5686 5689 5687 5684 5679 5677 5678 5678 5677 5677 5677 5678 5675 5671 5670 5672 5671 5663 5664 5669 5668 5673 5661 5651 5648 5643 5640 5638 5635 5632 5626 5620 5616
5697 5699 5698 5696 5698 5696 5694 5695 5692 5688 5688 5686 5684 5682 5680 5676 5676 5677 5677 5677 5677 5678 5675 5674 5672 5670 5670 5669 5667 5666 5663 5663 5662 5663 5653 5646 5640 5638 5635 5628 5626 5620 5614
5693 5691 5693 5694 5697 5696 5694 5693 5693 5689 5690 5687 5685 5680 5679 5678 5676 5678 5678 5677 5676 5675 5674 5671 5670 5669 5672 5671 5671 5668 5665 5663 5662 5655 5650 5648 5646 5641 5636 5630 5623 5619 5614